Theta_e
335 336 338 340 343 339 339 336 338 338 336 338 338 337 338 338 338 337 337 337 339 341 342 342 339 338 337 340 340 338 337 335 338 333 332 333 332 333 337 337 338 336 335 334 332 327 324 323 324 332 333 333 333 332 331 332 334 335 336 335 335 335 335
337 336 337 339 341 342 339 339 338 339 339 339 338 337 338 338 337 338 337 337 338 341 341 340 337 338 340 339 337 337 333 338 335 334 332 333 334 334 334 335 336 334 333 335 334 331 326 324 324 323 326 332 333 331 332 333 334 337 336 335 333 333 336
339 338 338 338 339 339 338 339 340 339 338 336 336 336 338 339 338 336 337 338 339 339 341 340 338 337 337 337 337 339 341 339 340 334 332 336 336 336 335 335 333 333 332 332 332 331 330 330 323 322 325 325 322 328 334 334 335 336 335 334 334 333 335
338 338 336 336 337 339 338 337 336 338 338 335 336 336 337 337 337 336 337 337 338 337 339 338 337 337 338 338 337 339 338 338 336 334 331 335 334 336 334 334 334 332 330 330 331 331 329 327 325 325 327 326 324 326 332 332 332 335 334 334 334 334 336
338 336 336 336 336 337 338 335 336 337 336 335 336 336 336 337 336 335 336 337 337 337 336 338 336 338 337 338 338 337 337 335 334 333 332 334 332 335 336 335 334 335 334 333 331 332 330 329 327 326 325 326 325 326 327 331 332 331 332 331 334 334 335
338 338 336 336 338 338 339 338 336 335 335 335 336 334 335 335 335 335 335 336 335 336 337 338 338 335 336 336 336 336 336 333 334 335 332 332 335 334 331 334 334 334 334 335 334 331 332 331 328 325 326 327 324 325 327 328 327 330 330 331 333 334 333
338 337 337 337 338 338 339 338 337 336 335 335 335 335 336 336 335 335 335 336 336 337 338 340 337 338 336 335 335 335 334 334 336 336 335 335 338 339 338 335 336 335 335 335 334 332 331 330 327 326 326 326 327 323 326 326 327 325 329 331 333 333 333
336 336 337 338 338 337 338 337 336 337 335 336 335 337 338 337 337 335 335 335 335 336 338 340 339 337 335 333 333 333 334 336 336 335 333 335 337 337 337 335 335 336 335 334 333 332 331 330 330 330 327 324 323 324 323 324 326 326 326 330 332 332 332
334 335 336 337 337 337 337 338 338 339 339 339 338 338 338 338 336 335 335 334 335 336 337 338 338 338 333 333 333 333 333 335 335 336 336 337 337 337 337 336 335 334 335 333 335 333 332 332 333 332 330 326 320 318 322 321 323 325 328 327 330 332 332
332 332 333 335 337 337 338 338 338 339 341 341 339 339 338 338 337 335 334 334 334 335 335 335 336 338 338 336 334 333 335 337 335 334 334 336 337 336 336 337 338 334 334 334 334 334 335 334 333 333 331 329 327 321 319 318 321 323 326 328 326 329 331
330 331 332 333 335 336 337 337 337 338 339 340 338 337 338 337 336 335 335 334 335 335 335 334 334 335 336 335 333 334 335 336 335 335 336 333 336 336 336 337 338 334 334 334 334 335 334 334 333 333 332 332 332 326 323 320 321 326 326 329 329 327 329
327 329 331 332 334 334 335 336 337 338 338 336 336 336 336 336 336 335 335 334 334 334 334 334 334 335 333 332 333 335 336 335 334 336 333 335 335 335 336 338 338 337 333 331 334 335 335 335 334 334 333 334 333 332 329 324 320 326 330 327 329 331 329
327 329 330 331 332 333 333 335 336 336 338 335 333 337 335 335 335 335 334 334 333 334 334 334 335 334 333 332 332 332 333 332 332 330 331 335 334 335 336 336 335 335 333 331 334 336 335 335 336 334 334 333 333 333 332 328 323 324 330 330 329 330 330
327 329 329 330 332 333 335 335 334 335 334 332 331 334 335 335 336 336 335 334 333 333 333 333 334 334 333 332 332 332 333 332 332 330 333 333 334 334 333 334 334 334 334 334 336 334 334 335 336 335 334 333 332 334 332 331 325 325 329 332 331 329 330
327 328 329 330 330 331 332 334 333 331 331 332 333 332 335 336 335 335 334 333 333 332 332 333 333 333 331 331 330 332 332 333 331 332 333 332 332 332 333 333 333 334 332 331 333 332 333 334 334 333 333 333 331 332 334 330 329 325 322 327 328 330 329
324 326 327 329 329 329 331 333 333 333 334 331 332 333 334 334 334 335 333 334 334 333 333 332 332 332 333 332 330 331 332 332 332 332 332 331 330 331 331 332 333 333 334 333 334 334 335 334 333 332 332 333 333 333 332 331 329 326 325 323 326 325 327
321 323 324 326 328 330 330 331 331 331 331 332 332 333 333 332 333 333 333 333 333 334 333 333 332 332 332 332 332 332 332 332 332 333 331 330 330 330 331 332 333 333 331 330 331 336 333 333 333 332 333 334 334 332 334 333 332 328 326 322 323 323 324
317 318 320 322 325 328 330 331 331 330 331 331 331 332 333 333 332 332 332 332 334 334 334 333 332 332 332 333 333 332 332 332 332 331 331 332 331 331 332 333 333 332 333 331 331 331 331 333 334 334 334 333 333 333 334 333 332 330 329 324 324 325 325
316 317 318 319 321 324 326 329 329 330 330 330 331 332 332 332 331 331 331 332 333 334 333 332 333 331 332 332 333 334 333 334 333 330 332 333 332 332 333 333 333 332 330 331 330 334 333 334 334 334 335 335 332 333 333 333 332 330 328 328 325 321 323
314 315 317 319 321 323 325 328 329 328 329 330 330 330 331 331 331 332 331 333 333 334 334 334 334 334 334 334 334 334 334 331 330 330 333 333 333 332 334 334 333 331 331 332 331 333 333 336 335 335 335 335 333 331 332 331 331 330 328 326 324 324 321
314 315 316 318 320 323 325 326 327 328 328 328 328 328 329 330 332 331 331 331 332 333 333 330 333 334 334 334 334 334 333 332 331 333 333 332 332 332 334 335 334 331 332 330 331 333 334 331 336 336 335 335 334 331 331 331 327 326 326 325 323 322 322
314 315 316 317 318 319 321 324 327 328 328 329 329 330 329 330 330 330 331 331 331 332 332 330 329 332 333 332 333 333 331 330 332 330 330 331 330 331 333 335 333 333 332 329 322 317 319 323 332 332 333 335 333 330 330 329 328 327 326 324 322 324 323
313 314 315 315 316 317 317 318 320 320 321 324 327 329 329 329 330 329 329 329 330 330 329 329 327 318 320 332 333 332 332 332 332 331 329 328 327 329 331 333 334 326 320 320 318 313 312 312 314 328 335 336 334 331 330 328 326 326 326 324 324 325 322
312 312 313 314 315 314 315 316 316 315 316 318 321 324 327 328 328 329 330 329 328 330 330 327 314 307 307 311 326 333 331 330 331 330 329 327 326 328 329 330 331 326 324 321 317 306 306 305 308 310 310 312 318 336 331 328 328 327 324 324 324 323 321
311 311 311 311 312 313 313 313 313 314 315 316 317 318 321 323 326 327 328 328 328 329 329 318 306 305 306 305 315 332 332 332 331 329 327 328 328 328 328 328 329 327 326 328 327 322 313 303 301 299 300 301 302 300 300 321 328 328 326 324 324 324 322
310 310 310 311 311 311 310 310 310 310 311 312 313 313 313 314 315 318 323 325 327 328 329 310 303 304 303 303 306 319 333 331 329 328 328 327 328 328 328 328 327 327 328 323 328 328 326 318 299 296 297 299 299 300 299 298 299 322 326 324 322 323 324
309 309 310 310 310 309 308 307 307 308 309 310 310 309 309 309 310 311 312 314 318 320 316 295 294 298 300 301 303 312 333 330 329 329 329 329 330 330 330 330 328 327 327 327 329 329 327 324 322 322 324 327 325 311 301 303 303 300 312 325 326 322 322
308 308 309 309 309 308 307 307 306 306 306 306 307 306 306 306 307 307 308 310 310 309 306 293 294 295 296 298 299 307 329 331 329 329 329 330 330 331 332 332 330 329 328 328 329 327 327 325 326 326 325 324 322 319 319 323 325 328 328 326 329 328 327
307 308 308 308 307 307 307 306 305 305 305 305 305 305 305 305 305 306 306 306 306 305 303 292 292 295 296 296 297 322 327 328 327 327 327 329 330 331 331 329 329 329 329 330 316 307 316 327 326 325 323 320 315 312 308 299 294 298 316 324 323 321 316
306 306 307 306 306 306 305 305 305 304 303 303 302 302 302 302 303 304 303 302 302 301 301 295 291 292 294 293 301 323 323 325 323 322 322 323 323 324 325 327 328 327 328 327 307 302 304 311 324 323 320 318 316 313 310 306 296 294 294 293 293 293 293
305 305 305 305 305 306 306 305 304 304 303 301 300 300 300 300 300 301 301 301 300 299 299 296 292 292 293 292 299 318 322 320 318 317 317 318 319 316 311 304 316 326 323 319 297 298 300 314 321 320 318 315 312 310 309 310 309 304 295 295 295 295 295
305 305 305 305 305 304 304 303 303 304 304 304 303 303 301 300 300 300 300 300 299 298 298 296 292 292 293 293 300 315 319 320 316 314 312 312 316 315 313 306 299 310 316 306 295 297 298 312 321 320 318 316 313 311 310 312 311 311 312 312 312 313 311
305 305 304 304 304 304 304 303 302 303 303 303 303 303 302 301 299 299 298 298 298 298 298 297 294 292 293 293 295 310 316 313 310 309 311 311 311 311 311 309 301 292 292 293 295 296 298 303 319 319 319 317 315 312 314 314 312 312 310 310 309 310 309
305 305 305 305 305 305 304 302 302 301 301 301 302 302 303 302 301 299 298 299 298 297 296 296 295 291 292 293 293 300 311 308 308 308 307 305 304 304 303 303 301 292 290 290 291 291 293 294 302 320 320 319 317 313 308 310 308 303 309 307 307 307 306
305 305 305 305 305 305 305 304 303 302 301 300 300 301 302 302 301 298 298 298 297 296 297 295 295 292 291 292 292 294 304 304 306 309 306 304 301 301 301 301 300 293 290 291 291 292 293 294 297 316 310 296 295 297 309 308 308 308 307 307 310 307 306
303 304 304 305 304 304 304 304 304 303 301 300 299 299 299 299 299 299 298 297 297 297 297 295 292 293 291 291 291 292 292 298 295 305 302 300 300 300 300 299 297 292 291 291 292 292 294 294 297 299 293 294 294 295 300 306 306 306 305 305 306 304 303
301 302 302 303 303 303 303 303 303 302 301 300 299 298 298 298 298 297 296 296 296 297 297 296 294 292 291 290 290 290 291 291 293 300 301 301 301 300 299 298 294 290 291 291 291 291 291 293 296 292 293 293 295 299 307 306 305 305 302 302 302 301 302
Wind_Speed
4 4 4 4 4 3 3 1 1 6 7 7 7 7 7 7 6 8 8 7 9 7 6 6 8 7 8 8 7 7 8 8 5 6 8 8 10 9 10 9 7 4 3 5 3 4 4 6 8 7 6 7 7 7 8 8 7 6 5 5 5 4 5
4 3 4 5 4 3 3 3 4 5 7 8 9 9 8 8 7 8 7 7 6 8 7 6 7 8 9 7 9 8 10 6 8 6 8 7 9 9 10 9 7 7 6 6 5 5 5 6 7 9 8 8 7 8 7 7 7 6 6 6 4 4 5
4 5 5 5 4 3 4 4 4 4 5 6 6 6 7 6 7 7 6 8 8 7 5 5 7 8 8 9 10 10 9 9 4 6 8 8 8 9 8 8 8 7 7 7 6 6 6 6 5 8 9 10 10 8 8 8 9 7 8 6 6 7 6
5 6 6 6 5 5 4 4 5 5 5 6 7 6 7 9 9 9 9 9 7 8 6 5 7 7 8 10 10 10 9 8 5 7 8 10 8 6 9 8 8 8 8 8 7 7 6 6 6 7 8 9 10 10 10 10 9 8 7 7 7 7 6
6 6 7 7 6 5 5 6 5 6 6 7 7 7 7 8 9 9 10 10 8 7 7 6 6 5 8 9 9 8 8 9 7 8 8 6 10 7 5 7 7 8 8 7 7 6 7 6 5 6 7 8 8 7 9 9 10 9 9 9 8 7 7
7 7 7 7 6 5 5 7 7 6 6 6 6 7 8 9 10 9 10 10 9 9 9 9 8 8 8 9 9 10 9 12 12 10 8 11 12 7 9 8 8 8 8 6 4 5 5 5 6 6 7 8 7 7 8 9 8 9 8 8 7 7 7
7 8 6 6 7 6 6 7 8 7 6 7 7 8 9 10 10 10 10 10 10 9 9 10 10 9 8 9 10 10 12 11 10 10 9 11 9 9 7 8 9 8 8 7 6 7 7 6 7 7 6 7 7 7 6 7 8 8 8 7 8 7 7
8 7 6 6 6 7 7 7 8 7 7 7 7 8 8 9 10 10 9 9 11 10 10 9 9 9 9 11 10 11 11 10 10 11 11 12 10 11 10 10 7 8 8 8 9 7 7 8 7 7 7 8 7 6 7 7 7 10 8 8 8 8 7
8 8 7 5 6 7 8 8 8 7 7 7 8 8 8 8 9 10 9 9 10 10 10 9 10 9 11 11 10 9 10 9 10 12 11 10 11 12 11 10 9 8 8 9 9 7 8 7 7 6 8 8 9 8 7 7 8 8 10 8 8 9 8
10 9 9 8 8 8 8 7 8 9 8 7 8 8 8 7 8 9 10 9 10 11 11 10 10 10 11 10 9 11 12 11 10 12 11 10 10 11 10 11 7 4 4 6 8 8 7 5 6 6 8 8 8 8 9 8 9 8 10 10 9 9 9
9 8 8 10 10 8 7 8 8 9 9 8 9 8 8 8 8 10 10 10 9 11 11 10 10 11 11 10 12 11 11 10 10 10 9 11 9 9 11 10 9 7 5 8 9 9 8 7 7 8 8 8 8 8 7 8 8 8 8 11 9 9 11
8 8 7 7 8 10 9 9 9 9 8 9 9 9 8 8 9 9 9 10 10 11 11 11 11 10 11 10 11 10 9 8 8 9 9 11 10 10 11 11 9 6 5 8 9 8 9 9 9 8 8 8 8 8 6 7 7 7 7 9 8 8 11
8 7 7 7 8 9 9 9 9 10 8 7 10 9 9 10 10 10 10 10 10 10 12 11 11 11 11 11 11 10 10 9 11 11 11 9 8 9 10 11 10 8 8 9 11 9 10 10 9 9 9 8 7 7 6 6 6 7 7 7 8 7 10
9 8 8 7 8 9 8 8 8 8 7 8 10 10 9 9 10 9 10 10 11 11 11 12 9 9 11 11 10 10 10 11 11 11 12 11 11 10 11 11 12 12 10 11 8 10 10 11 10 9 9 8 8 8 7 7 7 6 5 3 6 7 9
9 9 9 8 8 9 9 7 5 8 10 9 9 10 9 7 8 9 10 11 11 11 12 11 10 11 12 11 11 7 10 10 12 12 11 11 11 9 10 11 11 11 8 9 11 12 11 11 11 10 10 9 9 8 8 8 9 7 7 6 5 7 8
10 11 10 9 8 8 8 9 8 7 7 8 8 9 8 8 8 10 10 11 12 12 12 13 13 13 12 13 12 10 9 12 11 12 12 11 12 12 12 11 11 10 7 9 8 11 12 12 11 11 11 9 9 9 9 9 8 9 9 8 7 7 8
12 11 11 9 10 10 9 8 9 9 8 7 8 8 9 9 9 10 10 11 12 12 12 12 13 13 14 13 13 12 12 12 12 12 13 12 12 12 12 12 11 11 10 12 13 7 8 11 11 10 11 9 9 9 8 8 8 8 8 8 9 8 8
12 12 12 11 12 11 10 9 8 9 8 8 9 9 10 10 10 11 11 12 12 12 12 13 13 13 13 13 13 13 14 13 12 10 12 13 12 13 12 12 12 12 11 10 8 11 10 11 11 10 9 9 9 8 7 7 8 8 7 8 7 6 7
14 13 12 11 11 11 11 10 9 8 9 10 10 10 11 10 10 10 11 12 12 12 10 11 13 13 14 13 13 13 12 11 10 13 14 12 12 12 12 12 11 11 11 12 10 9 11 12 11 11 11 9 9 8 9 8 8 8 9 10 7 7 5
13 12 12 12 11 10 10 10 10 9 8 10 10 10 10 10 10 10 11 11 12 12 12 12 12 13 13 13 13 13 12 11 9 10 11 11 11 12 11 11 10 9 8 6 6 9 11 12 10 11 11 10 10 10 9 9 8 7 5 2 7 8 7
13 13 12 11 11 12 10 9 8 8 9 9 9 10 11 11 11 10 11 11 11 11 10 12 12 12 13 12 12 12 11 10 11 11 10 10 10 10 11 10 10 11 9 8 12 12 11 12 9 10 10 9 10 10 10 9 8 11 8 6 5 8 8
13 13 13 12 11 12 13 13 12 9 8 8 8 9 10 11 11 11 12 12 11 8 5 7 9 11 12 12 12 12 13 12 11 11 11 10 10 10 10 8 8 8 3 2 6 10 9 10 7 10 9 10 11 10 9 9 9 7 8 9 9 9 9
14 13 13 13 12 12 12 11 11 12 12 11 11 10 11 10 11 11 12 12 12 8 8 11 11 15 12 10 11 11 11 11 12 11 11 9 10 11 10 8 5 6 7 5 3 6 1 6 12 10 5 10 10 10 9 10 10 9 9 10 10 10 12
14 14 14 13 13 13 13 11 11 10 10 10 11 12 12 11 10 10 11 12 12 9 7 9 11 12 14 13 12 11 12 12 11 10 11 12 11 10 10 8 5 5 5 6 5 6 12 12 8 1 5 8 7 3 9 8 7 9 10 9 12 13 12
14 14 15 15 14 13 12 12 12 12 11 11 9 10 11 12 11 10 9 12 11 10 9 10 14 14 14 15 13 10 11 11 10 8 9 11 10 10 10 8 7 6 5 5 6 4 4 3 5 5 7 8 7 9 8 4 4 5 5 9 10 10 8
15 14 15 15 14 14 14 13 13 13 13 12 10 8 9 9 10 10 9 11 12 11 11 7 14 15 13 12 12 11 10 10 12 12 10 10 10 10 9 8 8 6 5 7 9 8 8 5 5 6 7 8 7 7 7 6 5 2 6 7 6 5 3
15 14 14 14 14 14 14 14 13 12 12 12 11 10 9 9 8 7 8 7 8 8 6 12 11 6 10 13 14 11 8 10 12 12 11 10 9 10 11 10 10 9 7 8 10 9 8 8 8 7 6 6 4 4 4 3 1 2 3 2 6 7 6
15 14 14 14 14 14 14 14 13 12 11 11 11 11 9 9 8 7 7 7 6 6 7 12 7 8 11 11 13 10 9 9 10 11 10 11 10 10 10 9 10 10 11 11 9 10 10 9 9 8 8 6 4 5 5 4 3 3 5 6 5 4 7
15 14 14 14 14 14 14 14 13 12 11 10 9 9 10 10 9 9 8 7 6 6 8 14 6 6 6 7 9 6 4 8 8 9 9 10 9 7 7 8 8 9 9 10 11 11 9 9 9 9 8 7 6 6 7 7 6 8 9 6 6 6 6
14 14 13 14 14 14 14 13 13 11 11 10 10 10 10 10 10 10 10 9 8 7 8 12 13 8 5 8 7 2 4 4 6 8 8 8 7 7 4 4 7 7 8 7 11 11 9 9 9 9 9 8 7 7 7 6 11 15 16 17 17 15 13
13 13 13 14 13 13 12 11 12 11 11 10 11 11 9 10 11 11 13 11 9 9 8 12 15 11 12 11 8 1 4 6 7 9 6 7 7 7 8 15 9 6 7 8 11 11 11 9 10 10 10 11 10 9 9 8 8 9 13 14 14 14 14
13 13 13 13 12 13 12 10 10 10 10 10 10 9 9 9 9 9 10 10 14 10 7 10 17 15 16 16 11 5 4 3 9 8 7 7 7 6 7 10 15 8 7 11 12 11 9 7 10 10 10 11 10 11 9 9 10 12 10 10 8 8 9
13 13 13 12 12 12 11 10 11 10 9 9 10 9 9 9 11 10 10 11 11 8 8 10 15 17 19 19 16 8 3 2 7 7 7 7 8 7 7 7 10 13 13 9 8 6 5 4 8 9 9 9 11 11 11 9 7 7 8 8 8 8 9
13 12 12 12 11 12 10 9 10 9 9 9 10 10 11 10 10 11 11 13 11 13 14 11 12 19 21 19 17 10 4 7 8 7 7 9 7 7 6 7 7 10 12 11 10 10 10 11 6 8 7 8 8 11 11 8 8 9 9 8 8 8 8
11 10 11 11 11 11 11 10 8 9 9 9 11 12 12 11 10 9 11 13 15 13 17 20 11 19 18 16 16 17 9 10 8 5 8 8 8 7 7 6 6 8 14 14 13 12 13 13 14 6 10 15 17 15 11 9 8 7 7 6 5 7 7
9 8 9 11 12 11 10 11 12 10 11 11 11 11 11 12 11 10 12 12 12 13 10 14 21 15 17 18 19 21 21 15 12 9 9 9 9 7 7 7 7 12 16 16 16 15 14 15 13 10 13 13 13 12 9 7 7 7 6 6 6 7 6
9 10 12 11 12 12 11 11 11 11 11 11 11 11 10 11 12 14 14 12 12 12 10 10 16 21 19 24 23 23 20 18 16 11 11 10 9 8 8 9 9 15 17 18 19 19 17 14 10 13 12 11 8 6 7 7 7 8 7 7 7 6 6
Wind_Direction
281 287 285 266 226 208 209 187 197 181 218 229 228 220 224 237 240 229 228 231 242 218 201 193 190 176 195 212 205 211 220 217 220 213 218 197 203 199 209 212 217 231 244 230 247 208 213 176 186 184 191 196 190 207 205 203 199 183 182 191 180 169 174
276 276 261 254 254 227 258 216 215 210 217 223 217 212 212 219 218 222 212 209 236 242 201 205 201 188 199 201 201 213 222 193 214 213 242 211 210 208 190 207 214 214 215 217 219 229 233 203 184 184 179 184 204 207 200 204 198 188 188 189 176 172 174
257 242 249 250 241 241 239 236 234 228 231 238 239 219 207 206 211 217 214 209 202 234 243 210 215 205 208 210 216 219 221 219 163 204 230 225 219 211 198 202 203 201 214 209 211 221 220 232 207 191 186 182 198 200 199 193 196 192 189 184 177 185 178
268 262 257 255 251 240 240 239 237 241 229 229 239 233 222 214 216 222 224 219 198 196 209 183 234 212 222 218 218 219 219 213 195 225 240 234 216 227 207 204 207 196 212 205 203 208 217 203 206 191 185 195 203 180 193 194 196 192 188 184 186 186 176
249 251 258 265 258 236 227 242 236 233 230 228 228 233 230 233 230 227 225 225 216 191 193 180 202 215 222 223 219 222 219 220 208 215 228 241 245 208 226 215 211 214 215 216 207 206 203 209 209 198 187 184 199 188 187 180 196 190 195 190 186 189 178
259 249 254 254 260 245 230 237 234 227 233 241 237 234 238 236 235 231 222 219 217 208 200 189 181 206 209 213 220 224 217 218 217 216 223 224 225 199 214 211 215 212 214 214 244 216 212 222 204 206 197 181 193 179 165 185 188 198 198 191 187 188 182
278 266 255 258 255 254 240 234 231 230 235 238 243 238 233 231 233 234 232 230 227 221 208 197 186 181 203 186 204 212 216 218 218 221 223 229 225 221 223 212 212 215 214 197 200 224 208 207 209 211 183 178 190 184 158 191 198 191 189 194 192 187 187
298 281 270 265 271 267 251 242 235 228 231 228 235 243 237 232 232 236 236 234 234 227 219 201 189 187 177 184 194 210 216 214 216 219 224 225 217 214 219 225 216 219 210 213 208 211 221 201 216 193 191 177 181 190 174 194 191 214 189 188 189 184 191
298 297 295 282 270 266 263 257 252 243 234 229 229 234 233 232 230 233 230 231 237 236 224 212 197 186 178 184 201 205 219 221 217 214 218 217 217 212 214 215 226 228 216 211 210 200 220 206 217 198 194 196 188 184 189 192 198 204 198 189 187 187 181
318 308 302 293 280 270 263 261 256 251 240 225 230 232 232 222 230 233 234 234 234 233 228 216 207 192 185 188 192 196 206 208 214 214 216 219 215 215 212 213 221 236 292 270 230 201 209 223 208 206 208 204 204 198 184 197 200 203 192 183 190 181 187
322 311 299 295 291 279 269 260 258 254 243 232 230 229 227 226 230 232 232 231 229 232 232 221 214 206 194 192 201 207 205 203 209 215 212 218 211 220 216 209 211 212 236 261 207 208 200 204 210 207 208 213 213 215 197 204 191 202 192 185 197 174 185
320 317 303 285 282 280 269 265 262 258 254 247 241 228 212 224 223 225 229 231 230 229 228 224 213 203 194 197 201 204 199 196 205 214 216 219 211 212 211 208 206 206 190 244 231 200 207 200 205 208 207 220 209 233 216 206 208 184 204 181 195 188 175
312 310 314 303 278 268 275 269 270 268 262 266 257 235 218 220 223 220 219 223 229 232 226 224 213 206 202 203 203 206 203 197 210 218 221 210 211 210 209 202 198 201 194 217 230 205 200 205 205 209 207 209 212 216 226 221 224 181 186 182 185 185 171
310 304 305 309 303 291 277 280 282 284 297 273 256 244 230 225 225 223 221 221 227 230 228 223 213 212 209 206 203 205 204 205 209 215 217 204 209 200 207 211 207 207 209 222 210 202 201 201 200 212 212 203 210 202 210 218 215 170 153 179 186 184 169
319 317 309 307 305 302 294 281 274 273 262 245 245 253 248 235 233 228 226 227 225 224 225 220 208 213 212 204 201 203 211 204 209 211 207 204 202 198 201 212 206 204 214 221 219 208 199 201 200 205 206 208 206 200 205 211 218 153 161 178 183 182 165
327 322 320 313 309 303 303 293 280 280 272 266 265 253 255 258 245 237 231 228 225 220 219 218 213 214 210 204 200 197 202 206 205 210 204 199 202 199 200 203 201 201 210 230 228 213 198 200 204 205 205 204 209 201 201 216 216 197 179 177 181 175 176
332 330 322 314 308 301 290 289 290 285 283 279 268 262 254 254 253 244 241 236 234 226 220 213 212 214 212 205 201 195 195 204 205 207 205 202 198 201 202 199 202 202 203 207 218 206 213 200 208 206 205 200 208 201 207 206 218 222 187 189 181 193 179
332 330 325 320 313 302 295 287 276 273 272 260 256 254 250 239 238 240 239 237 237 230 223 218 214 205 207 209 208 206 205 206 206 205 210 203 192 198 201 199 197 200 204 204 208 215 202 200 202 206 202 203 200 201 196 202 205 215 199 188 175 205 168
336 331 327 321 316 312 302 290 282 280 273 268 262 263 261 249 236 236 242 243 242 237 227 230 220 213 210 208 208 208 207 204 204 207 204 198 195 196 202 197 197 207 210 202 205 212 203 197 202 204 201 203 205 194 199 192 204 202 202 190 182 177 178
337 332 331 325 318 309 303 299 294 284 278 273 271 264 262 259 244 238 241 239 239 238 233 225 218 216 211 208 206 205 205 207 200 221 201 198 191 195 201 197 196 209 212 206 220 220 199 197 199 206 199 202 213 200 193 207 194 206 182 234 185 183 182
338 337 334 330 328 323 315 305 298 294 289 285 278 271 263 259 251 239 240 241 241 241 231 233 224 219 216 209 205 203 202 202 198 194 187 195 190 193 203 198 202 202 207 167 220 219 179 203 197 197 199 201 206 210 206 202 175 209 170 198 199 185 187
341 340 341 339 339 339 335 334 328 315 299 289 286 277 266 257 254 248 244 242 244 235 232 239 240 230 220 209 203 203 200 200 191 185 185 184 185 195 197 209 207 210 128 283 318 7 2 335 228 195 205 201 205 207 211 217 200 168 187 180 196 200 192
347 347 348 347 348 344 343 343 343 345 344 336 321 308 287 276 262 257 251 246 241 240 235 237 223 216 211 197 196 196 193 192 186 179 177 173 185 193 195 201 190 74 82 101 114 254 191 224 270 282 212 194 204 205 210 214 204 184 200 196 197 208 209
352 354 352 351 350 351 349 344 342 341 340 339 330 325 317 296 280 265 260 253 248 238 229 246 229 204 199 203 218 193 187 188 181 171 166 176 181 183 187 189 180 135 146 112 119 176 200 223 217 293 23 17 16 297 226 205 236 212 193 186 210 208 205
356 357 358 357 355 352 353 350 348 342 339 340 337 330 323 320 305 282 267 261 255 246 242 238 216 199 200 197 196 183 185 179 173 156 167 176 174 176 183 176 154 152 176 171 171 163 167 109 106 67 60 51 45 56 57 40 266 245 226 214 208 194 199
359 358 0 2 0 0 358 357 353 346 343 343 342 345 344 338 343 340 316 284 263 255 244 235 206 197 200 180 186 203 181 174 173 174 171 167 171 176 180 164 161 161 160 144 164 184 185 145 97 95 100 99 79 47 42 70 67 7 343 12 343 74 120
2 3 1 3 4 4 3 360 355 350 345 347 349 352 358 0 358 350 344 343 337 356 20 24 355 298 214 196 189 189 184 172 178 177 174 169 164 174 171 167 163 161 144 168 188 178 172 163 155 147 161 181 156 124 119 122 53 7 6 249 216 145 215
3 5 5 6 6 8 6 2 359 355 353 354 355 356 3 6 7 7 10 4 13 8 11 5 343 299 279 229 189 174 212 175 174 173 174 168 163 170 170 163 160 161 164 177 182 180 174 166 162 160 157 148 92 58 36 10 340 273 201 218 258 160 168
4 6 8 9 11 10 9 8 4 1 360 3 4 5 11 11 10 19 26 27 27 27 17 357 356 329 288 280 219 191 188 155 159 155 149 160 155 147 158 158 157 149 158 170 145 162 181 174 168 163 153 136 97 77 57 26 356 28 40 62 75 79 72
6 8 10 11 12 12 11 11 11 7 6 9 11 16 17 16 16 18 23 29 33 35 23 8 5 21 21 41 311 164 155 154 148 137 131 128 122 118 103 121 136 143 143 135 128 150 147 150 157 154 148 135 106 97 86 73 56 66 76 79 81 85 93
10 10 13 14 12 12 14 15 14 12 15 16 19 25 27 27 25 24 24 23 23 25 31 17 17 18 36 18 20 349 190 169 144 115 105 99 105 90 57 32 22 134 132 132 140 145 157 158 142 143 135 121 114 110 111 110 98 83 90 94 95 97 94
14 15 17 17 16 15 15 13 9 13 15 14 15 18 24 30 26 23 19 14 16 14 19 24 22 18 33 30 16 0 345 192 123 116 105 96 94 102 73 53 31 33 111 135 144 149 169 169 143 146 141 132 123 123 129 132 122 120 122 118 113 106 87
21 22 23 24 24 21 17 16 14 13 20 16 14 16 23 32 40 34 26 17 18 11 26 27 28 19 38 30 19 17 3 26 73 82 95 93 97 76 74 70 53 44 74 87 91 81 30 325 155 148 147 138 135 130 140 132 115 114 105 99 95 84 81
24 24 24 26 28 31 28 21 22 21 20 19 19 21 22 29 38 42 38 36 29 33 35 23 22 34 39 36 31 27 41 33 59 62 78 82 66 67 61 63 70 43 60 56 51 45 44 25 18 152 146 137 123 119 122 115 107 109 107 106 107 104 97
19 17 15 15 19 22 27 28 21 24 31 28 24 22 20 21 29 40 45 41 40 37 38 29 21 38 43 45 44 45 48 36 24 89 71 71 73 66 57 47 57 60 68 64 57 54 49 44 31 55 77 96 105 117 123 118 117 109 107 103 98 103 104
11 10 10 13 19 22 21 22 24 22 24 29 30 29 22 18 16 24 41 43 42 40 39 39 35 37 38 45 48 50 47 45 25 51 65 67 62 69 70 72 71 72 75 70 65 56 54 64 63 72 85 92 98 101 112 116 117 114 106 105 102 90 87
13 14 22 20 21 25 23 24 26 23 22 25 30 29 24 22 25 28 32 35 40 41 38 43 39 40 41 42 47 51 53 49 44 61 66 72 76 78 82 79 82 81 80 79 76 69 58 54 77 84 74 73 73 79 106 116 117 112 112 106 96 94 93